Helicity
46 50 66 38 45 54 40 53 44 50 42 55 75 98 108 126 67 90 123 123 100 77 37 19 29 46 61 82 94 82 84 78 93 81 115 113 129 95 118 124 153 153 163 180 140
36 71 70 72 102 57 50 59 55 55 57 78 95 106 115 135 126 133 145 110 86 54 25 28 42 47 68 82 99 112 119 127 130 111 104 105 97 116 112 103 122 85 102 121 136
89 37 31 38 51 22 22 40 53 54 77 85 79 72 66 87 95 111 130 101 88 28 25 22 35 51 67 71 83 87 85 105 98 96 105 100 103 116 104 111 80 101 126 94 129
64 76 51 56 45 45 53 61 61 71 75 71 70 66 54 76 73 76 118 88 73 36 -8 16 11 21 30 35 59 45 77 88 100 96 109 73 113 97 111 113 91 95 131 141 149
67 78 80 84 87 83 83 79 76 77 76 70 54 53 52 43 48 73 90 64 27 15 29 -0 16 2 20 29 18 39 50 50 38 53 78 83 97 70 86 104 59 85 109 91 100
55 68 90 100 103 99 93 84 76 74 67 51 36 26 40 62 50 52 51 22 22 17 28 25 8 2 38 25 25 64 38 22 52 64 118 131 150 167 165 68 64 96 110 116 98
58 66 85 100 109 109 103 94 78 64 51 47 31 41 37 41 45 48 31 12 20 19 7 13 10 34 53 55 84 75 60 57 80 140 171 200 237 211 60 57 65 84 108 125 112
48 65 82 92 84 84 83 63 51 32 22 22 37 42 43 41 38 26 26 3 11 13 12 18 16 47 37 57 80 50 79 53 170 83 180 211 261 83 70 100 99 115 106 121 87
35 44 59 69 61 56 55 53 25 11 13 31 40 46 30 43 25 31 20 7 7 1 15 17 31 53 69 12 32 84 64 53 43 126 148 186 189 137 53 64 95 122 107 78 105
29 34 42 41 40 17 13 16 5 22 38 40 16 30 25 20 23 19 16 1 -7 2 43 58 59 33 49 23 13 44 72 130 86 155 132 165 164 120 40 72 84 106 82 76 69
43 40 43 45 55 14 7 11 40 47 54 34 36 24 22 25 22 9 -1 4 17 36 -33 54 -13 -14 15 44 40 57 89 111 90 148 155 153 116 55 48 84 71 61 73 31 28
64 68 54 46 45 1 2 5 14 15 19 45 34 21 14 15 18 2 11 10 22 -24 36 17 13 52 51 52 68 58 80 74 125 175 110 100 59 36 68 49 60 55 92 28 14
47 47 47 45 45 20 -15 -16 8 21 28 34 24 28 19 3 2 -11 -18 29 39 27 33 8 31 53 54 48 65 63 81 117 150 84 137 112 104 81 94 89 61 62 36 17 -15
47 26 22 38 71 38 21 12 -9 -12 19 15 21 30 34 24 41 28 42 23 35 11 15 12 55 47 43 44 80 71 169 167 123 66 110 117 134 110 82 84 69 19 -4 -25 -30
41 16 8 31 73 42 34 9 -2 3 2 -1 38 32 45 13 14 38 39 38 31 43 24 56 55 53 28 60 96 65 96 146 88 94 66 145 110 146 111 72 49 33 12 -14 -22
54 35 16 15 13 21 29 -15 -20 14 -8 -1 18 16 13 29 26 23 26 32 41 33 37 39 51 37 40 44 71 69 76 87 91 88 92 121 91 88 114 97 62 27 19 11 4
28 16 47 54 15 -6 -5 -27 -6 16 10 5 11 14 7 12 19 23 19 15 22 12 58 36 45 32 41 16 51 23 16 -0 66 97 128 118 63 62 57 63 59 55 26 12 15
22 38 26 5 45 48 7 -38 12 -8 -12 22 14 -3 9 12 28 20 12 24 36 8 6 28 39 44 53 43 49 26 -17 -15 78 105 130 39 89 90 38 -6 33 35 31 25 14
17 14 26 15 33 41 -28 -10 -33 -26 -19 -15 -13 -1 17 18 14 19 36 31 30 18 2 16 24 83 51 48 34 58 50 15 36 89 77 63 83 71 69 48 23 24 16 -3 -16
16 3 3 2 22 4 -34 -61 -48 -17 -3 -4 -12 16 21 25 20 34 40 63 51 39 -13 44 9 58 70 64 66 54 55 7 40 35 68 98 43 53 57 22 12 14 11 9 9
5 -5 21 9 7 -21 -20 -32 -25 3 10 -1 12 21 35 36 42 34 55 68 67 44 30 40 58 87 52 41 68 73 29 46 58 77 75 59 93 69 24 17 -15 17 25 17 21
9 -13 21 5 10 -14 -27 -21 13 16 32 33 41 43 51 56 45 39 58 85 76 60 65 73 67 76 77 106 107 59 67 56 33 90 160 147 46 71 38 11 53 44 29 22 19
21 14 50 17 16 6 -3 -6 25 31 41 54 66 68 83 73 58 85 86 103 87 82 79 86 103 72 62 109 89 36 99 135 170 171 155 159 82 99 65 61 63 63 87 88 65
22 -5 60 74 68 30 15 29 46 85 82 94 102 109 115 77 79 123 127 128 102 73 122 115 168 156 176 127 145 140 166 165 187 217 185 262 119 136 96 103 146 173 139 115 71
84 74 104 85 87 62 62 76 74 95 114 118 125 129 115 120 113 111 131 97 98 108 146 139 189 126 123 84 63 92 106 88 216 225 300 122 124 112 79 99 177 177 145 126 117
123 135 137 124 117 102 89 89 76 95 100 117 111 143 104 106 76 60 64 95 110 162 153 200 230 236 179 39 18 39 93 169 133 127 175 122 60 10 29 149 156 177 172 138 105
142 154 151 149 136 127 101 112 133 139 91 89 85 70 56 47 107 111 114 113 168 206 239 288 268 195 167 178 82 65 46 102 157 181 24 81 112 56 209 232 210 146 143 110 89
Wind_Speed
58 44 42 52 31 24 46 54 40 37 33 29 25 22 14 12 12 13 19 29 33 37 34 33 32 33 34 36 38 38 39 47 51 52 55 56 61 56 56 63 60 57 61 56 48
65 56 48 41 40 46 44 41 39 36 32 29 26 24 21 18 10 14 27 31 34 34 31 33 34 35 37 39 41 42 44 49 51 56 63 69 70 72 70 70 72 71 64 59 53
51 54 42 40 46 42 40 38 38 37 33 30 28 27 26 26 26 23 30 31 34 32 31 33 35 37 38 38 40 41 48 49 53 55 60 68 74 69 77 87 75 77 71 63 60
38 39 40 41 41 39 38 42 42 38 36 34 32 29 25 30 32 27 29 29 32 30 29 34 36 37 38 39 39 46 42 45 49 51 58 67 71 78 79 88 81 79 75 69 67
53 47 42 39 37 38 38 39 37 33 30 29 29 29 28 18 19 26 24 21 21 26 36 36 40 39 40 41 44 40 46 48 51 53 50 56 59 73 79 77 77 84 86 87 85
49 46 41 36 34 32 32 30 28 26 27 24 30 29 30 19 27 24 24 23 26 35 40 40 39 39 39 41 43 44 46 46 48 51 53 63 62 63 65 69 75 78 87 88 92
43 38 35 34 34 34 33 31 31 30 28 25 29 30 14 25 26 24 23 26 30 34 38 40 39 35 36 31 35 30 22 39 38 47 56 64 56 59 60 66 75 77 76 80 83
39 37 35 32 29 30 31 29 29 30 28 28 27 28 30 25 25 21 25 30 33 38 36 36 35 32 20 17 20 18 28 29 41 46 49 51 58 66 53 53 60 62 67 67 67
25 25 24 22 20 21 32 33 32 29 26 29 27 25 34 25 23 24 30 22 23 21 36 30 28 24 27 13 18 33 25 29 39 47 49 42 49 34 36 38 43 51 63 71 65
13 12 12 11 11 15 30 38 26 30 25 25 26 32 29 28 24 22 21 21 22 21 24 32 28 16 21 19 19 22 28 33 36 41 44 46 41 35 34 36 40 39 42 57 66
7 9 11 11 12 15 35 40 38 36 24 34 31 32 28 25 26 20 20 20 24 26 19 31 13 10 17 20 16 21 25 31 36 41 47 44 36 33 36 38 40 30 7 15 62
11 11 14 18 23 26 37 39 39 41 43 30 29 27 26 25 24 19 21 21 22 17 19 18 21 24 24 23 22 22 27 32 38 41 42 42 32 34 44 44 39 32 18 25 54
11 13 19 22 34 31 40 40 40 38 37 30 27 24 20 23 20 22 42 40 39 23 23 20 25 28 23 23 25 27 28 34 37 39 38 47 44 50 52 48 52 40 26 25 34
6 18 27 33 37 34 31 32 36 35 27 17 17 26 21 29 30 37 40 39 34 24 27 23 31 29 29 28 35 37 40 37 36 40 48 56 52 52 49 54 56 52 37 25 28
5 40 49 47 42 25 30 32 36 35 26 30 30 39 37 37 38 38 39 37 36 37 34 37 33 35 36 38 40 37 33 33 36 38 40 52 46 50 49 48 51 51 45 37 31
23 39 47 48 48 43 32 35 34 30 36 39 37 46 43 38 38 38 38 39 36 39 35 35 36 35 39 39 37 36 43 40 39 44 46 49 50 50 54 42 33 33 36 39 41
49 60 54 44 48 44 39 31 35 39 41 46 47 49 44 45 41 46 47 47 47 49 54 43 39 38 38 48 43 58 57 53 49 51 46 43 40 38 39 41 30 23 25 28 32
52 50 57 54 46 41 40 37 41 42 45 44 47 47 44 51 43 50 48 46 43 47 49 55 50 49 44 50 53 56 58 56 48 50 45 35 41 43 36 32 40 34 29 26 24
47 47 53 54 46 42 43 48 44 45 46 52 51 47 48 48 50 52 50 43 44 46 55 54 48 43 45 47 48 51 52 48 44 41 45 38 34 24 37 43 47 46 39 28 18
49 44 54 55 44 44 49 46 44 43 46 48 53 49 55 57 55 58 49 41 46 45 50 47 53 40 46 45 43 43 43 51 51 48 48 44 39 33 35 41 41 42 37 29 19
50 48 50 56 40 49 52 48 46 43 44 49 52 52 50 53 55 56 49 45 41 47 49 49 47 52 50 44 47 40 47 47 45 42 43 50 44 30 31 36 40 36 25 14 10
51 56 52 50 50 51 53 52 49 45 44 45 45 46 50 54 54 52 49 46 41 43 53 46 53 56 60 46 42 43 48 44 51 48 41 43 37 34 31 38 47 35 43 47 33
60 55 48 50 53 59 57 57 49 52 51 50 50 46 48 52 58 49 49 44 41 44 49 48 51 73 55 45 42 52 49 47 51 50 39 42 39 41 38 55 70 61 56 55 56
57 61 54 50 47 58 64 58 60 52 52 49 52 51 54 57 52 55 58 50 45 54 45 44 51 51 61 64 66 63 56 46 45 51 46 41 38 42 61 63 59 59 59 62 63
54 55 54 65 61 64 59 60 62 64 51 49 53 55 61 65 67 63 58 73 64 54 49 50 67 61 60 64 65 60 57 52 44 44 50 47 54 58 71 57 54 56 58 65 69
53 53 50 59 60 59 61 59 65 62 55 61 62 59 59 69 71 92 87 81 74 59 56 55 76 73 83 74 65 67 66 59 51 45 44 49 57 51 46 49 50 55 66 69 69
48 48 53 53 53 59 59 56 58 59 60 53 62 75 78 77 70 71 71 71 70 71 69 66 71 77 88 72 84 86 62 43 43 46 38 49 46 46 52 59 59 66 76 72 66
Wind_Direction
115 120 134 138 141 148 160 163 167 175 178 181 184 192 204 239 262 309 313 297 296 296 306 319 329 330 331 328 325 322 317 310 310 309 308 310 306 304 300 294 292 290 286 290 289
112 122 132 135 137 142 150 158 166 171 174 180 187 197 211 236 305 325 293 298 303 306 320 322 330 333 332 331 329 324 319 317 315 311 307 305 303 301 298 293 289 285 285 286 285
113 121 128 135 135 142 149 158 164 169 175 184 193 205 222 237 232 264 295 300 308 310 328 334 336 341 341 344 340 335 323 322 318 315 312 308 304 302 297 290 290 286 286 281 278
104 115 123 130 136 141 149 155 162 170 177 184 194 205 223 229 223 255 281 294 312 309 303 340 356 2 358 354 355 341 341 336 334 329 322 314 311 303 298 292 290 286 284 281 275
108 115 123 129 136 142 149 157 166 176 187 198 206 213 220 232 237 251 254 267 277 314 358 6 7 10 4 1 356 358 349 342 337 336 334 329 322 313 307 301 295 287 280 275 273
107 114 122 131 139 147 154 162 171 181 184 196 197 200 201 219 210 227 243 261 304 344 356 359 7 11 15 7 4 0 354 349 348 344 340 330 328 324 319 313 302 295 285 275 271
105 114 123 131 139 147 154 162 168 173 181 186 182 181 201 199 214 230 252 279 301 335 1 15 26 41 33 43 30 28 24 7 7 1 349 342 332 326 326 321 309 301 293 285 274
106 110 115 124 137 150 158 163 168 170 177 179 186 191 179 207 210 252 280 311 333 340 33 39 51 63 95 85 59 47 32 18 15 2 358 354 330 340 335 329 319 309 299 289 280
112 117 120 124 135 150 157 156 165 171 175 182 189 198 167 210 230 269 294 216 188 67 48 69 78 82 62 66 52 36 11 3 6 6 360 358 324 336 314 313 309 309 298 287 280
117 136 150 158 167 177 166 162 168 171 190 187 188 168 174 171 189 205 152 180 173 151 105 52 62 90 66 56 33 15 8 10 353 3 354 340 326 328 332 343 333 318 302 287 274
113 138 157 175 182 184 156 154 151 150 160 149 155 154 173 187 162 194 227 159 110 98 214 50 131 98 55 47 35 16 1 348 352 11 1 5 347 348 360 8 5 359 300 288 267
105 133 151 151 142 143 143 146 149 146 131 150 150 151 161 177 158 148 119 122 102 182 83 87 73 54 47 40 26 12 357 359 16 13 3 11 5 21 30 28 25 36 88 159 229
82 114 125 135 124 123 120 137 142 140 132 132 144 144 165 185 192 248 338 31 26 78 62 71 52 39 40 33 23 14 10 10 1 359 31 21 43 39 40 40 43 55 90 141 175
13 102 106 106 104 112 128 137 144 141 171 246 177 109 125 75 61 29 25 28 39 62 50 57 37 40 37 32 29 21 26 16 4 20 33 35 37 41 39 46 50 56 77 114 156
35 75 62 61 75 128 118 126 122 138 187 270 71 18 35 34 18 22 19 26 25 20 27 24 29 28 26 26 24 20 9 4 23 33 34 37 41 40 43 46 49 56 68 87 121
86 83 61 42 34 47 89 79 76 26 315 337 18 356 3 20 18 14 16 12 15 12 17 15 16 21 18 16 18 10 14 24 34 33 35 36 39 40 39 42 46 57 72 84 96
59 41 51 66 34 33 44 26 358 347 350 330 342 346 351 355 0 357 358 0 1 357 356 6 12 16 18 9 16 8 13 18 22 25 27 34 39 42 41 47 52 60 78 95 106
36 45 36 43 52 57 49 12 350 343 341 352 346 344 346 346 352 347 351 352 1 359 354 352 352 0 6 5 3 8 13 17 14 15 16 32 35 41 47 52 58 66 75 86 101
23 26 28 26 38 45 25 355 351 347 344 337 340 342 342 346 343 341 344 348 352 355 349 346 348 357 359 360 3 3 9 14 11 14 13 22 29 50 47 48 47 50 56 68 88
10 10 8 10 27 21 2 1 357 0 354 349 339 342 337 336 337 336 340 347 346 350 351 347 341 353 353 355 359 0 8 3 6 5 5 7 12 24 34 34 36 37 42 45 55
357 352 2 1 18 358 354 353 350 355 354 345 341 338 341 339 339 336 338 345 351 346 347 344 343 341 347 348 346 354 352 358 359 359 358 358 2 21 22 26 23 22 23 23 30
348 335 350 1 341 345 341 341 344 345 348 346 345 342 340 338 336 336 334 341 351 350 341 346 337 334 335 341 340 341 342 345 346 347 344 346 353 8 14 14 6 11 9 6 19
333 333 350 350 326 329 333 331 336 333 335 334 334 336 338 335 332 334 335 342 345 343 338 340 335 328 334 342 341 332 332 331 332 331 327 335 340 354 355 346 334 340 349 355 353
332 322 331 340 338 329 326 326 324 334 331 332 327 330 328 327 328 326 326 333 336 331 332 332 324 321 318 320 325 322 322 322 320 319 319 308 306 322 331 335 340 340 338 337 343
334 324 325 318 320 321 324 322 320 320 327 330 324 323 322 319 318 318 323 319 323 326 325 323 315 314 312 314 314 310 310 309 295 294 306 312 318 322 323 332 337 339 340 332 330
331 328 328 321 321 319 320 319 317 319 319 318 316 319 319 314 313 308 311 315 315 320 318 317 312 315 311 314 313 311 311 305 302 295 286 294 307 317 322 330 332 337 335 328 328
332 332 325 323 322 321 319 319 320 322 319 321 317 313 311 312 316 315 314 311 307 307 308 308 309 311 309 317 315 312 318 321 317 315 299 308 316 320 321 324 324 326 327 326 326